Wind_Speed
10 10 10 9 9 10 10 10 10 10 10 10 10 10 11 12 12 12 11 12 12 12 13 13 13 14 14 14 15 15 15 15 14 14 15 15 15 16 16 17 17 17 17
11 11 11 10 10 11 11 11 11 11 11 11 11 12 13 13 13 13 13 13 13 13 13 14 14 15 15 16 16 16 16 15 15 16 17 17 17 17 17 17 18 18 17
12 12 11 11 11 11 12 12 12 11 12 12 13 14 14 13 13 14 14 15 14 14 14 14 15 15 16 17 17 17 17 17 17 18 18 18 18 18 18 19 19 19 18
13 12 12 11 11 12 13 13 12 13 13 14 14 15 15 15 15 16 16 16 16 16 15 16 16 16 17 17 18 18 18 19 19 19 19 19 20 20 20 20 20 19 19
14 13 12 12 12 13 13 13 13 14 15 15 16 16 16 16 17 17 17 17 18 17 17 17 17 18 19 19 19 20 20 20 21 21 21 21 21 21 21 21 21 21 20
15 14 14 14 14 14 14 14 15 16 16 17 17 17 18 18 19 19 19 20 20 19 18 19 19 19 21 21 22 22 22 23 22 23 23 22 22 22 22 22 22 22 21
17 16 15 15 15 15 16 17 17 17 18 18 18 19 19 20 20 20 21 21 21 20 21 21 21 21 22 23 23 24 24 25 24 24 24 23 24 23 23 23 23 23 22
17 17 16 16 16 16 17 18 19 20 20 20 20 21 21 21 21 21 21 21 21 21 22 22 23 23 23 24 24 25 25 25 25 25 24 24 24 25 25 25 24 24 24
17 17 18 18 18 18 19 20 21 21 22 22 22 23 23 23 22 22 22 22 23 23 24 24 25 25 25 26 25 26 26 26 26 26 25 24 25 26 26 26 26 25 25
19 20 20 21 21 21 21 22 22 23 23 24 24 24 24 24 24 24 24 24 25 25 25 26 26 27 27 27 27 27 26 26 26 26 26 26 27 27 27 27 27 27 26
21 21 22 22 22 23 23 24 25 25 25 25 25 25 25 25 26 26 26 26 27 27 28 28 28 29 29 29 29 28 28 28 27 27 28 27 28 28 27 28 28 27 27
22 22 22 23 24 24 25 26 26 26 27 27 27 26 26 26 26 27 28 29 29 29 29 30 30 30 31 30 29 29 29 29 29 29 29 28 28 28 28 28 28 27 27
24 24 24 25 25 25 26 26 27 27 28 28 27 27 27 27 27 28 29 30 31 31 31 31 32 32 31 30 29 29 30 30 30 31 31 30 30 30 29 29 28 28 28
27 26 26 26 26 27 27 27 27 27 27 27 28 28 28 28 29 29 30 31 31 32 32 32 32 32 32 30 29 30 30 31 32 32 31 31 31 30 30 29 28 28 28
28 28 27 27 27 27 27 26 27 27 28 28 28 28 28 29 29 30 31 31 32 32 32 31 31 31 31 31 31 31 31 32 32 31 30 30 29 29 30 30 29 29 30
29 29 28 28 27 27 27 27 27 28 29 28 28 28 29 29 30 30 31 31 31 32 32 32 31 31 31 31 31 31 31 31 30 30 30 30 30 30 30 30 30 30 31
30 29 28 28 27 28 28 28 28 29 30 30 29 30 31 30 31 31 31 31 32 32 32 31 31 31 31 31 31 31 30 30 30 30 30 30 30 30 30 30 31 31 31
30 29 29 29 28 28 29 29 29 30 30 30 30 30 31 31 31 32 32 32 32 32 32 32 31 31 30 30 30 30 30 29 29 30 30 30 30 31 32 32 33 33 33
31 30 31 30 30 29 29 29 29 29 30 30 31 31 31 32 32 32 32 31 32 33 33 32 31 30 30 30 30 30 30 29 30 31 31 31 31 31 32 33 34 34 33
32 32 31 30 30 29 29 28 28 29 30 31 31 31 32 31 31 31 31 31 32 33 32 31 31 31 30 30 30 30 30 30 30 30 30 31 31 31 32 33 33 33 33
32 32 32 32 31 31 30 30 30 30 31 31 31 32 32 32 31 31 32 32 32 32 31 30 30 31 31 31 31 30 30 30 30 30 31 31 32 32 33 33 33 33 33
33 32 31 31 32 32 31 31 31 31 32 32 32 32 32 32 32 32 31 31 32 32 31 30 31 31 31 31 30 30 31 31 31 31 31 31 32 32 33 33 33 33 32
32 31 31 31 31 31 31 31 31 31 31 32 31 31 31 31 32 32 32 31 32 32 32 31 32 32 31 30 31 31 31 32 32 31 31 31 31 31 32 32 32 32 32
32 31 31 30 31 31 31 31 31 32 32 32 31 31 31 32 32 32 32 32 32 33 32 32 32 32 31 31 31 32 32 32 32 32 32 32 31 31 31 31 31 31 31
31 30 31 31 31 31 31 31 31 31 32 32 31 30 31 31 32 32 32 31 32 32 32 32 31 31 31 32 32 33 33 33 33 32 32 32 31 30 30 30 31 31 31
30 30 30 31 31 31 31 31 31 31 31 31 30 31 32 32 31 31 31 31 31 31 31 31 31 32 33 33 33 33 33 32 32 32 31 31 30 30 30 31 32 32 31
Wind_Direction
333 333 335 335 336 338 344 348 346 342 341 339 340 338 335 335 334 333 330 333 331 328 325 321 319 319 320 322 322 322 321 321 318 315 315 312 310 311 311 309 309 307 307
324 325 326 327 327 330 334 335 335 334 333 334 333 331 330 329 327 329 327 327 328 324 321 319 316 315 315 320 320 319 317 316 314 314 313 312 310 309 309 310 309 309 308
313 314 316 317 319 322 324 325 325 326 326 327 326 325 324 322 321 321 320 319 322 320 316 314 313 312 313 316 319 318 317 314 312 312 312 311 310 309 309 309 310 309 308
306 306 308 310 312 314 316 320 320 321 320 319 319 317 317 316 316 315 314 315 316 315 312 311 311 311 312 313 315 318 318 316 314 312 312 311 311 309 306 306 306 305 305
300 300 302 305 306 307 308 314 318 319 320 316 314 312 311 310 310 310 309 309 309 310 309 308 308 309 309 309 310 312 314 314 312 311 310 309 309 308 305 302 303 303 301
298 298 299 301 302 303 305 307 312 314 315 313 312 310 308 307 308 307 306 305 307 307 306 304 303 303 303 304 306 307 309 311 311 309 308 306 306 304 301 300 300 299 298
292 292 294 297 300 302 304 306 308 309 309 308 308 307 305 304 307 307 306 304 305 304 304 303 302 301 300 301 303 305 306 307 306 306 306 305 303 302 300 298 298 299 297
286 286 289 294 298 300 301 304 305 305 307 306 304 304 305 305 303 302 303 304 304 305 303 302 301 301 301 301 302 303 304 304 305 304 303 303 302 301 300 298 298 299 299
283 284 288 292 295 297 298 301 302 303 306 306 307 306 304 303 301 301 301 302 303 304 303 302 302 303 302 302 301 301 301 302 302 304 303 303 303 302 300 298 298 297 296
285 287 288 290 294 296 296 298 300 301 302 303 303 303 303 302 300 299 299 299 300 301 301 302 302 302 300 299 298 298 299 300 301 302 304 305 305 302 298 296 296 295 294
282 283 284 288 292 294 294 295 297 299 301 301 301 301 301 300 299 298 297 297 298 299 299 299 299 299 299 298 296 295 295 297 298 298 301 302 303 302 298 295 296 294 293
279 281 284 287 290 293 294 294 295 297 300 300 299 298 298 298 299 298 298 297 297 296 297 297 297 298 298 297 294 293 295 296 297 298 300 300 299 299 297 295 295 294 293
277 280 283 285 287 290 292 292 294 297 298 298 297 297 297 298 298 298 299 298 297 297 297 298 297 297 299 296 294 294 295 295 296 297 298 298 297 297 297 296 294 294 292
275 278 281 283 285 288 290 291 293 295 297 297 296 297 297 297 298 299 299 298 297 297 296 296 295 296 296 296 296 295 295 294 295 296 296 296 295 296 296 294 294 294 294
280 279 279 283 284 286 288 290 292 294 297 298 297 298 299 299 299 299 299 298 297 297 296 296 297 297 296 297 297 297 296 296 296 296 296 295 295 295 296 295 294 293 293
280 282 284 286 284 285 287 288 291 294 295 296 297 298 300 300 298 298 299 298 297 297 296 296 297 297 296 296 296 296 295 296 296 296 295 294 295 294 294 294 294 294 293
277 279 282 283 284 285 287 288 290 292 293 294 296 297 299 299 298 299 299 297 297 298 299 299 298 297 297 297 297 297 296 296 296 295 294 294 294 294 293 293 294 294 293
276 278 279 280 281 285 287 288 290 292 293 295 297 298 299 300 300 299 297 297 298 298 298 298 298 297 297 297 296 296 296 297 296 296 296 295 294 294 293 293 293 293 292
275 277 279 279 281 284 288 290 292 294 295 296 299 299 299 300 299 299 298 298 299 298 297 297 297 298 299 297 295 295 296 296 296 296 297 296 296 296 295 294 294 293 292
275 276 278 279 282 287 291 293 294 295 296 297 299 300 299 299 299 299 299 299 300 300 298 298 298 299 299 297 296 295 296 295 296 297 297 297 297 297 297 297 296 294 294
273 275 276 278 282 286 289 292 294 295 296 296 298 299 300 299 299 299 298 300 301 301 300 300 299 299 298 297 297 296 296 296 297 297 297 297 298 299 298 298 298 297 294
272 274 277 280 283 285 288 291 292 294 295 296 297 298 299 298 299 299 299 300 301 301 300 300 300 300 298 296 297 296 298 299 299 299 299 298 298 298 297 297 297 296 295
271 274 277 280 282 285 287 289 291 293 295 296 297 297 298 298 298 298 297 299 299 300 299 298 298 298 298 297 297 297 298 299 298 298 299 298 299 299 298 297 295 295 294
270 273 277 280 282 284 286 288 289 291 293 295 296 296 296 297 298 297 297 297 297 297 298 297 297 296 297 298 298 298 298 298 299 299 299 298 298 299 299 298 296 295 295
270 273 277 279 282 284 286 287 288 289 290 293 294 295 296 297 297 297 297 297 297 297 298 298 297 297 298 300 300 299 298 298 298 299 300 299 299 299 299 298 298 297 297
273 275 277 280 283 285 287 288 288 289 290 292 292 293 295 297 298 298 298 298 298 299 298 298 298 299 299 301 301 300 298 298 297 298 299 300 301 301 300 299 299 298 297
Height
5908 5907 5905 5903 5902 5900 5899 5897 5895 5893 5891 5889 5888 5886 5884 5882 5880 5878 5876 5874 5872 5870 5868 5866 5863 5861 5859 5856 5854 5852 5849 5847 5844 5842 5840 5838 5835 5833 5830 5828 5825 5822 5820
5906 5905 5903 5902 5900 5899 5897 5895 5893 5891 5889 5887 5885 5883 5881 5879 5877 5875 5873 5871 5869 5867 5865 5863 5860 5858 5856 5853 5851 5848 5846 5843 5841 5839 5837 5834 5832 5829 5827 5824 5821 5819 5816
5904 5902 5901 5900 5898 5896 5895 5893 5891 5889 5887 5885 5883 5881 5879 5877 5875 5872 5870 5868 5866 5864 5861 5859 5857 5855 5852 5850 5847 5844 5842 5839 5837 5835 5832 5830 5828 5825 5823 5820 5817 5815 5812
5900 5899 5898 5896 5895 5894 5892 5890 5888 5886 5884 5882 5880 5877 5875 5873 5871 5869 5867 5864 5862 5860 5857 5855 5853 5851 5848 5846 5843 5841 5838 5835 5833 5830 5828 5825 5823 5820 5818 5815 5813 5810 5807
5897 5896 5894 5893 5891 5890 5888 5886 5884 5882 5880 5878 5876 5873 5871 5869 5867 5865 5862 5860 5858 5856 5853 5851 5848 5846 5844 5841 5839 5836 5834 5831 5828 5825 5823 5820 5817 5815 5812 5810 5807 5805 5802
5893 5892 5891 5889 5888 5886 5884 5882 5880 5878 5876 5873 5871 5869 5866 5864 5862 5860 5858 5855 5853 5851 5848 5846 5843 5841 5838 5836 5833 5831 5828 5826 5823 5820 5817 5814 5812 5809 5806 5804 5801 5799 5797
5889 5888 5886 5885 5883 5881 5879 5878 5876 5873 5871 5868 5865 5863 5861 5859 5857 5855 5852 5850 5847 5845 5842 5840 5837 5834 5832 5830 5827 5825 5822 5819 5816 5814 5811 5809 5806 5803 5800 5798 5795 5793 5791
5883 5883 5882 5880 5879 5877 5875 5873 5871 5868 5865 5862 5858 5857 5855 5853 5851 5849 5846 5844 5841 5839 5836 5833 5830 5828 5825 5823 5820 5818 5815 5813 5810 5807 5805 5802 5800 5797 5794 5791 5789 5787 5784
5877 5877 5877 5875 5873 5872 5870 5868 5866 5863 5860 5857 5854 5852 5850 5847 5844 5842 5840 5837 5835 5833 5830 5827 5824 5821 5818 5816 5813 5811 5808 5806 5803 5800 5797 5794 5792 5790 5787 5784 5782 5780 5778
5873 5872 5871 5869 5867 5865 5863 5862 5860 5857 5855 5852 5849 5846 5843 5841 5838 5835 5833 5831 5828 5826 5823 5820 5817 5814 5811 5807 5805 5803 5801 5798 5796 5793 5790 5788 5785 5782 5779 5777 5774 5772 5769
5866 5865 5864 5863 5861 5859 5857 5855 5853 5850 5848 5845 5842 5839 5837 5834 5831 5828 5825 5823 5820 5818 5815 5813 5809 5806 5803 5800 5797 5795 5792 5790 5788 5786 5783 5780 5777 5774 5771 5769 5766 5763 5761
5860 5858 5857 5856 5854 5852 5850 5848 5845 5843 5841 5838 5835 5832 5829 5827 5824 5821 5818 5815 5812 5809 5807 5804 5801 5798 5795 5792 5789 5787 5784 5782 5779 5777 5774 5772 5769 5767 5764 5761 5758 5755 5753
5852 5851 5850 5848 5846 5844 5842 5840 5838 5836 5833 5830 5828 5825 5822 5819 5816 5814 5810 5807 5804 5801 5798 5795 5792 5789 5786 5783 5781 5778 5776 5773 5771 5768 5766 5763 5761 5758 5755 5752 5749 5747 5744
5844 5843 5842 5840 5839 5837 5835 5833 5830 5828 5825 5823 5820 5817 5814 5811 5809 5806 5802 5799 5796 5792 5789 5786 5783 5780 5777 5775 5772 5769 5767 5764 5762 5759 5756 5754 5751 5749 5746 5743 5741 5738 5736
5835 5833 5833 5832 5830 5829 5827 5825 5822 5820 5817 5815 5812 5809 5806 5803 5800 5797 5794 5791 5787 5784 5781 5778 5775 5772 5769 5766 5763 5760 5758 5755 5752 5749 5747 5744 5742 5740 5737 5735 5732 5729 5727
5827 5826 5825 5824 5822 5820 5819 5817 5814 5812 5809 5806 5803 5801 5798 5795 5792 5789 5785 5782 5779 5775 5772 5769 5766 5763 5760 5757 5754 5751 5748 5745 5742 5739 5737 5735 5733 5730 5728 5725 5723 5720 5717
5818 5817 5816 5815 5814 5812 5810 5808 5806 5804 5801 5798 5795 5792 5789 5786 5783 5780 5776 5773 5770 5767 5763 5760 5757 5754 5751 5748 5745 5742 5739 5736 5733 5731 5728 5726 5724 5721 5719 5716 5713 5711 5708
5809 5808 5807 5806 5805 5803 5801 5799 5797 5795 5793 5790 5787 5784 5781 5777 5774 5770 5767 5764 5761 5758 5754 5751 5748 5745 5742 5740 5736 5733 5730 5728 5725 5722 5719 5717 5714 5712 5709 5706 5703 5700 5698
5800 5800 5798 5797 5796 5794 5792 5790 5788 5786 5784 5781 5778 5775 5772 5768 5765 5761 5758 5755 5752 5748 5745 5742 5739 5736 5733 5731 5728 5725 5722 5719 5716 5713 5710 5708 5705 5702 5699 5696 5693 5689 5687
5791 5791 5790 5788 5787 5786 5784 5782 5780 5778 5775 5773 5770 5766 5763 5759 5756 5752 5749 5746 5743 5739 5736 5733 5730 5727 5725 5722 5719 5716 5713 5710 5707 5704 5701 5698 5695 5692 5689 5686 5682 5679 5676
5781 5781 5780 5779 5778 5777 5775 5773 5771 5769 5767 5764 5761 5758 5754 5750 5747 5744 5740 5737 5734 5730 5727 5724 5721 5718 5715 5712 5710 5707 5704 5701 5698 5695 5692 5689 5686 5682 5679 5676 5672 5669 5665
5772 5772 5771 5770 5769 5767 5766 5764 5762 5760 5758 5755 5752 5749 5745 5742 5738 5735 5732 5729 5725 5722 5718 5715 5712 5709 5706 5704 5701 5698 5695 5692 5689 5686 5683 5679 5676 5672 5669 5665 5662 5658 5655
5763 5762 5762 5761 5759 5758 5756 5755 5753 5751 5749 5746 5743 5740 5737 5733 5730 5727 5723 5720 5717 5713 5710 5707 5703 5700 5697 5695 5692 5689 5686 5683 5680 5676 5673 5670 5666 5662 5659 5655 5652 5649 5646
5753 5753 5752 5751 5750 5748 5747 5746 5744 5742 5739 5737 5734 5731 5728 5724 5721 5717 5714 5711 5708 5704 5701 5698 5695 5691 5689 5686 5683 5680 5677 5673 5670 5667 5663 5660 5657 5653 5649 5646 5643 5639 5636
5743 5743 5743 5742 5741 5739 5738 5736 5734 5732 5730 5727 5725 5722 5719 5715 5712 5708 5705 5702 5699 5695 5692 5689 5686 5683 5680 5677 5674 5671 5667 5664 5660 5657 5653 5650 5647 5643 5640 5637 5633 5630 5627
5734 5734 5734 5733 5732 5730 5728 5727 5725 5723 5721 5718 5715 5712 5709 5706 5703 5699 5696 5693 5689 5686 5683 5680 5677 5674 5671 5668 5664 5661 5657 5654 5650 5647 5644 5641 5638 5634 5631 5627 5624 5620 5617